Погода в Илаве

Польша     53°35′40″N   19°33′54″E
темп.,
°C
ветер,
м/с
пор.,
м/с
влажн.,
%
обл.,
%
осадки,
мм/ч
давл.,
гПа
погр.,
м
27 февраля, сб
сб2701:00+3зсз5129359 0.0 1024422
04:00+2зсз5119428 0.0 1025364
07:00+1сз4119420 0.0 1027307
10:00+5ссз6108025 0.0 1029681
13:00+6ссз696723 0.0 10301024
16:00+5ссз59690 0.0 1030893
19:00+2ссз37860 0.0 1032169
22:000сз37900 0.0 1032167
28 февраля, вс
вс2801:000зсз358723 0.0 1033101
04:00+1зюз3686100 0.0 1031147
07:000зюз359157 0.0 1032113
10:00+3зсз569236 0.0 1031355
13:00+3зсз469268 0.0 1031449
16:00+4сз3688100 0.0 1031335
19:00+2сз349465 0.0 103276
22:00+1ссз34940 0.0 103395
1 марта, пн
пн101:00+1ссз33920 0.0 103467
04:000сз23900 0.0 103424
07:00+1з23870 0.0 103427
10:00+6з34680 0.0 1034267
13:00+9зюз35640 0.0 1034363
16:00+8зюз47700 0.0 1033346
19:00+5зюз49860 0.0 1033163
22:00+4зюз49910 0.0 1032194
2 марта, вт
вт201:00+3з411930 0.0 1032230
04:00+1з38950 0.0 1031149
07:00+1з36940 0.0 1032142
10:00+6з46773 0.0 1032341
13:00+9зсз466433 0.0 1032586
16:00+9зсз356868 0.0 1031365
19:00+4с239044 0.0 103238
22:00+2св22950 0.0 103223
3 марта, ср
ср301:00+1св11940 0.0 103222
04:00+1ю11940 0.0 103122
07:00+1ююз12950 0.0 103122
10:00+5юз23783 0.0 1031326
13:00+8зюз34621 0.0 1030533
16:00+8з23640 0.0 1028134
19:00+5зюз22760 0.0 102622
22:00+4юз23860 0.0 102624